Location: Stoke Bliss
(52.2667°N, 2.5167°W)
Time: 19:40:57
(UTC+00:00)

IGS 5A - Pass Details

Date: 03 March 2021
Orbit: 585 x 586 km, 97.5° (Epoch: 15 April)

Event Time Altitude Azimuth Distance (km) Brightness Sun altitude
Exits shadow 20:48:00 40° 350° (N) 872 4.5 -26.8°
Drops below altitude 10° 20:50:44 10° 347° (NNW) 1,924 6.5 -27.2°
Sets 20:52:54 0° 347° (NNW) 2,829 7.5 -27.5°
